Location: Hannover
(52.3723°N, 9.7339°E)
Time: 04:13:54
(UTC+02:00)

ISS - Pass Details

Date: 27 March 2019
Orbit: 408 x 410 km, 51.6° (Epoch: 20 April)

Event Time Altitude Azimuth Distance (km) Brightness Sun altitude
Rises 21:44:58 0° 275° (W) 2,339 0.8 -25.3°
Reaches altitude 10° 21:47:04 10° 274° (W) 1,476 -0.4 -25.5°
Enters shadow 21:48:13 20° 271° (W) 1,015 -1.4 -25.6°
